Showing default

LEMUR-2 DELOITTE-2, 68491

Orbit data source: Space-Track

LEMUR-2 DELOITTE-2, 68491 is an American payload satellite in SSO that was launched on Mon, 30 Mar 2026 UTC via an FALCON 9 launch vehicle from the Air Force Western Test Range (AFWTR). Payload-class satellites include a variety of spacecraft equipped with specific instruments for various scientific and technological missions. These include communications satellites like Starlink; space stations such as the ISS; scientific satellites like the Hubble; Earth observation satellites from companies like Planet Labs, Umbra, and HawkEye 360; GPS; miniature CubeSats for education and research; and military/defense satellites.

Loading next visibility...
Identifier
68491, 2026-067CD
Orbit
SSO
Country
Flag of USUS
Related business
Manufacturer
Spire/Glasgow
Mission
Operational Commercial Com/MetRO
Bus & Motor
CUBESAT 6U, Unknown motor
Mass
10 kg wet, 10 kg dry
Launch date (UTC)
2026-03-30 (5 months ago)
Launch vehicle
FALCON 9
Launch site
Air Force Western Test Range (AFWTR)
Object type
Payload
Rocket body
Debris
Shape & HBR
Box, 0.3 m
Radar Cross Section
0.080 m², Medium (>0.1 m² and < 1m²)

Expand to show TLE details & history
Last TLE update: 16 hours ago

TLE from 16 hours ago
0 LEMUR-2 DELOITTE-2
1 68491U 26067CD  26228.44306626  .00003835  00000-0  38374-3 0  9997
2 68491  97.7606 185.6588 0002198 166.4867 193.6411 14.92001749 20705
Epoch: 2026-08-16T10:38Z
TLE epoch observation values (Epoch: 2026-08-16T10:38:00.924Z)
Latitude
-0.00006°
Longitude
61.31544°
Altitude
596.226 km
Speed
7.561 km/s
True Right ascension
12h 22m 38s
True Declination
0° 00' 00"
Sunlit
Object was in daylight at epoch
Visualization orbit readout
Latitude
Unknown
Longitude
Unknown
Altitude
Unknown
Speed
Unknown
Apparent Right ascension
Unknown
Apparent Declination
Unknown
Sunlit
N/A
Visualization observer readout
Local Sidereal Time
17:03:26
Azimuth
Unknown
Elevation
Unknown
Doppler factor
Unknown
Orbital elements
Apogee altitude
590.245 km
Perigee altitude
587.182 km
Semi-major axis
6,966.85 km
Eccentricity
0.00022
Inclination
97.7606°
RAAN
185.6588°
Arg. of periapsis
166.4867°
True anomaly
193.63516°
Mean anomaly
193.6411°
Eccentric anomaly
193.63813°
Mean motion
3.7324 °/min
Orbital period
96.45 mins
BSTAR
0.00038374
Loading maneuver chart data...
Computing Atmospheric mass density...
Loading historical data...
Loading historical data...
Loading historical data...
Loading historical data...
Loading historical data...
Loading historical data...
Loading historical data...

Documentation

Showing up to 5 results
|